{"data":{"norad_id":64462,"intl_designator":"2025-130AA","name":"STARLINK-34336","alt_names":[],"object_type":"PAYLOAD","status":"ACTIVE","operator":null,"country":"US","launch_date":"2025-06-18","launch_site_code":"AFETR","launch_vehicle":null,"mission":null,"orbit_class":"UNKNOWN","rcs_meters":null,"size_class":null,"mass_kg":null,"dimensions":null,"purposes":["comms"],"wikipedia_slug":null,"has_3d_model":false,"image_url":null,"decayed_at":null,"tle_current":{"epoch":"2026-09-20T07:14:53.859264Z","epoch_age_seconds":148767,"freshness":"FRESH","line1":"1 64462U 25130AA  26263.30201226  .00013831  00000+0  45637-3 0  9991","line2":"2 64462  53.1577 265.6112 0001259  92.4577 267.6569 15.31717851 70485","mean_motion":15.31717851,"eccentricity":0.0001259,"inclination_deg":53.1577,"raan_deg":265.6112,"arg_perigee_deg":92.4577,"mean_anomaly_deg":267.6569,"bstar":0.00045637,"rev_number":7048,"period_min":94.01209230929,"perigee_km":469.82451592608,"apogee_km":471.5490497546,"semimajor_km":6848.8237828403,"source":"CELESTRAK","updated_at":"2026-09-21T09:00:35.357045Z"}}}